FENGYUN 1C DEB, 32096

Orbit data source: Space-Track

FENGYUN 1C DEB, 32096 is space debris in SSO originally from a launch on Mon, 10 May 1999 UTC launched from the Taiyaun Space Center, China (TSC). Fengyun 1C debris stems from the Chinese weather satellite Fengyun-1C, which was intentionally destroyed by a Chinese anti-satellite missile in 2007. This event dramatically increased the amount of space debris, with thousands of trackable fragments posing hazards to satellites and human spaceflight. The Fengyun 1C debris cloud has become a focal point in discussions about space sustainability and the need for international regulations to prevent the creation of new debris.

Loading next visibility...
Identifier
32096, 1999-025CQN
Orbit
SSO
Country
Flag of CNCN / PRC
Related business
Manufacturer
Unknown
Mission
Spacecraft
Bus & Motor
Unknown
Mass
Unknown
Launch date (UTC)
1999-05-10 (27 years ago)
Launch vehicle
Unknown
Launch site
Taiyaun Space Center, China (TSC)
Object type
Payload
Rocket body
Debris
Shape & HBR
Unknown shape, 0.1 m
Radar Cross Section
Small (<0.1 m²)

Expand to show TLE details & history
Last TLE update: 2 days ago

TLE from 2 days ago
0 FENGYUN 1C DEB
1 32096U 99025CQN 26252.03296771  .00000452  00000-0  36584-3 0  9997
2 32096  99.0514 279.3351 0137085 127.2896 234.0853 13.90841424966180
Epoch: 2026-09-09T00:47Z
TLE epoch observation values (Epoch: 2026-09-09T00:47:28.410Z)
Latitude
0.00003°
Longitude
-80.62412°
Altitude
988.18 km
Speed
7.328 km/s
True Right ascension
18h 37m 20s
True Declination
0° 00' 00"
Sunlit
Object was in daylight at epoch
Visualization orbit readout
Latitude
Unknown
Longitude
Unknown
Altitude
Unknown
Speed
Unknown
Apparent Right ascension
Unknown
Apparent Declination
Unknown
Sunlit
N/A
Visualization observer readout
Local Sidereal Time
20:57:20
Azimuth
Unknown
Elevation
Unknown
Doppler factor
Unknown
Orbital elements
Apogee altitude
1,022.983 km
Perigee altitude
822.811 km
Semi-major axis
7,301.034 km
Eccentricity
0.01371
Inclination
99.0514°
RAAN
279.3351°
Arg. of periapsis
127.2896°
True anomaly
232.82583°
Mean anomaly
234.0853°
Eccentric anomaly
233.45429°
Mean motion
3.4791 °/min
Orbital period
103.48 mins
BSTAR
0.00036584
Loading maneuver chart data...
Computing Atmospheric mass density...

Documentation

Showing up to 5 results
|